Year,Month,Day,Hour,Minute,Value (Times are PST for temperature in C)
2020,04,14,00,00,6.60
2020,04,14,00,01,6.60
2020,04,14,00,02,6.60
2020,04,14,00,03,6.60
2020,04,14,00,04,6.60
2020,04,14,00,05,6.60
2020,04,14,00,06,6.60
2020,04,14,00,07,6.60
2020,04,14,00,08,6.60
2020,04,14,00,09,6.60
2020,04,14,00,10,6.60
2020,04,14,00,11,6.60
2020,04,14,00,12,6.60
2020,04,14,00,13,6.50
2020,04,14,00,14,6.50
2020,04,14,00,15,6.40
2020,04,14,00,16,6.40
2020,04,14,00,17,6.40
2020,04,14,00,18,6.40
2020,04,14,00,19,6.40
2020,04,14,00,20,6.40
2020,04,14,00,21,6.40
2020,04,14,00,22,6.40
2020,04,14,00,23,6.40
2020,04,14,00,24,6.40
2020,04,14,00,25,6.40
2020,04,14,00,26,6.40
2020,04,14,00,27,6.40
2020,04,14,00,28,6.40
2020,04,14,00,29,6.40
2020,04,14,00,30,6.40
2020,04,14,00,31,6.40
2020,04,14,00,32,6.40
2020,04,14,00,33,6.40
2020,04,14,00,34,6.50
2020,04,14,00,35,6.50
2020,04,14,00,36,6.60
2020,04,14,00,37,6.60
2020,04,14,00,38,6.60
2020,04,14,00,39,6.60
2020,04,14,00,40,6.60
2020,04,14,00,41,6.60
2020,04,14,00,42,6.60
2020,04,14,00,43,6.60
2020,04,14,00,44,6.60
2020,04,14,00,45,6.60
2020,04,14,00,46,6.60
2020,04,14,00,47,6.60
2020,04,14,00,48,6.60
2020,04,14,00,49,6.60
2020,04,14,00,50,6.60
2020,04,14,00,51,6.60
2020,04,14,00,52,6.60
2020,04,14,00,53,6.50
2020,04,14,00,54,6.50
2020,04,14,00,55,6.40
2020,04,14,00,56,6.40
2020,04,14,00,57,6.40
2020,04,14,00,58,6.30
2020,04,14,00,59,6.30
2020,04,14,01,00,6.30
2020,04,14,01,01,6.30
2020,04,14,01,02,6.30
2020,04,14,01,03,6.30
2020,04,14,01,04,6.20
2020,04,14,01,05,6.20
2020,04,14,01,06,6.20
2020,04,14,01,07,6.20
2020,04,14,01,08,6.10
2020,04,14,01,09,6.10
2020,04,14,01,10,6.10
2020,04,14,01,11,6.00
2020,04,14,01,12,6.00
2020,04,14,01,13,6.00
2020,04,14,01,14,5.90
2020,04,14,01,15,5.90
2020,04,14,01,16,5.90
2020,04,14,01,17,5.90
2020,04,14,01,18,5.80
2020,04,14,01,19,5.80
2020,04,14,01,20,5.80
2020,04,14,01,21,5.80
2020,04,14,01,22,5.70
2020,04,14,01,23,5.70
2020,04,14,01,24,5.70
2020,04,14,01,25,5.70
2020,04,14,01,26,5.70
2020,04,14,01,27,5.70
2020,04,14,01,28,5.70
2020,04,14,01,29,5.60
2020,04,14,01,30,5.60
2020,04,14,01,31,5.60
2020,04,14,01,32,5.60
2020,04,14,01,33,5.60
2020,04,14,01,34,5.60
2020,04,14,01,35,5.60
2020,04,14,01,36,5.60
2020,04,14,01,37,5.60
2020,04,14,01,38,5.60
2020,04,14,01,39,5.60
2020,04,14,01,40,5.60
2020,04,14,01,41,5.60
2020,04,14,01,42,5.60
2020,04,14,01,43,5.60
2020,04,14,01,44,5.60
2020,04,14,01,45,5.70
2020,04,14,01,46,5.60
2020,04,14,01,47,5.70
2020,04,14,01,48,5.70
2020,04,14,01,49,5.70
2020,04,14,01,50,5.70
2020,04,14,01,51,5.70
2020,04,14,01,52,5.70
2020,04,14,01,53,5.70
2020,04,14,01,54,5.70
2020,04,14,01,55,5.70
2020,04,14,01,56,5.70
2020,04,14,01,57,5.80
2020,04,14,01,58,5.80
2020,04,14,01,59,5.80
2020,04,14,02,00,5.80
2020,04,14,02,01,5.80
2020,04,14,02,02,5.80
2020,04,14,02,03,5.80
2020,04,14,02,04,5.80
2020,04,14,02,05,5.80
2020,04,14,02,06,5.80
2020,04,14,02,07,5.90
2020,04,14,02,08,5.90
2020,04,14,02,09,5.90
2020,04,14,02,10,5.90
2020,04,14,02,11,5.90
2020,04,14,02,12,5.90
2020,04,14,02,13,6.00
2020,04,14,02,14,6.00
2020,04,14,02,15,6.00
2020,04,14,02,16,6.00
2020,04,14,02,17,6.00
2020,04,14,02,18,6.00
2020,04,14,02,19,6.00
2020,04,14,02,20,6.00
2020,04,14,02,21,6.00
2020,04,14,02,22,6.00
2020,04,14,02,23,6.00
2020,04,14,02,24,6.00
2020,04,14,02,25,6.00
2020,04,14,02,26,6.00
2020,04,14,02,27,6.00
2020,04,14,02,28,6.00
2020,04,14,02,29,6.00
2020,04,14,02,30,6.00
2020,04,14,02,31,6.00
2020,04,14,02,32,6.10
2020,04,14,02,33,6.00
2020,04,14,02,34,6.10
2020,04,14,02,35,6.10
2020,04,14,02,36,6.10
2020,04,14,02,37,6.10
2020,04,14,02,38,6.10
2020,04,14,02,39,6.10
2020,04,14,02,40,6.10
2020,04,14,02,41,6.10
2020,04,14,02,42,6.10
2020,04,14,02,43,6.10
2020,04,14,02,44,6.10
2020,04,14,02,45,6.10
2020,04,14,02,46,6.10
2020,04,14,02,47,6.10
2020,04,14,02,48,6.10
2020,04,14,02,49,6.00
2020,04,14,02,50,6.00
2020,04,14,02,51,6.00
2020,04,14,02,52,6.00
2020,04,14,02,53,6.00
2020,04,14,02,54,6.00
2020,04,14,02,55,6.00
2020,04,14,02,56,6.00
2020,04,14,02,57,6.00
2020,04,14,02,58,6.00
2020,04,14,02,59,6.00
2020,04,14,03,00,6.00
2020,04,14,03,01,6.00
2020,04,14,03,02,6.00
2020,04,14,03,03,6.00
2020,04,14,03,04,6.00
2020,04,14,03,05,6.00
2020,04,14,03,06,6.00
2020,04,14,03,07,6.00
2020,04,14,03,08,6.00
2020,04,14,03,09,6.00
2020,04,14,03,10,6.00
2020,04,14,03,11,6.00
2020,04,14,03,12,6.00
2020,04,14,03,13,6.00
2020,04,14,03,14,6.00
2020,04,14,03,15,6.10
2020,04,14,03,16,6.00
2020,04,14,03,17,6.00
2020,04,14,03,18,6.10
2020,04,14,03,19,6.10
2020,04,14,03,20,6.00
2020,04,14,03,21,6.00
2020,04,14,03,22,6.00
2020,04,14,03,23,6.00
2020,04,14,03,24,6.00
2020,04,14,03,25,6.00
2020,04,14,03,26,6.00
2020,04,14,03,27,6.00
2020,04,14,03,28,6.00
2020,04,14,03,29,6.00
2020,04,14,03,30,6.00
2020,04,14,03,31,6.00
2020,04,14,03,32,6.00
2020,04,14,03,33,6.00
2020,04,14,03,34,6.00
2020,04,14,03,35,5.90
2020,04,14,03,36,5.90
2020,04,14,03,37,6.00
2020,04,14,03,38,6.00
2020,04,14,03,39,6.00
2020,04,14,03,40,6.00
2020,04,14,03,41,6.00
2020,04,14,03,42,6.00
2020,04,14,03,43,6.00
2020,04,14,03,44,6.00
2020,04,14,03,45,6.00
2020,04,14,03,46,6.00
2020,04,14,03,47,6.00
2020,04,14,03,48,5.90
2020,04,14,03,49,5.90
2020,04,14,03,50,5.90
2020,04,14,03,51,5.90
2020,04,14,03,52,5.80
2020,04,14,03,53,5.80
2020,04,14,03,54,5.80
2020,04,14,03,55,5.80
2020,04,14,03,56,5.80
2020,04,14,03,57,5.80
2020,04,14,03,58,5.70
2020,04,14,03,59,5.70
2020,04,14,04,00,5.70
2020,04,14,04,01,5.70
2020,04,14,04,02,5.70
2020,04,14,04,03,5.70
2020,04,14,04,04,5.70
2020,04,14,04,05,5.70
2020,04,14,04,06,5.60
2020,04,14,04,07,5.60
2020,04,14,04,08,5.60
2020,04,14,04,09,5.60
2020,04,14,04,10,5.60
2020,04,14,04,11,5.60
2020,04,14,04,12,5.60
2020,04,14,04,13,5.60
2020,04,14,04,14,5.50
2020,04,14,04,15,5.60
2020,04,14,04,16,5.50
2020,04,14,04,17,5.50
2020,04,14,04,18,5.50
2020,04,14,04,19,5.50
2020,04,14,04,20,5.50
2020,04,14,04,21,5.50
2020,04,14,04,22,5.50
2020,04,14,04,23,5.60
2020,04,14,04,24,5.60
2020,04,14,04,25,5.60
2020,04,14,04,26,5.60
2020,04,14,04,27,5.60
2020,04,14,04,28,5.60
2020,04,14,04,29,5.50
2020,04,14,04,30,5.50
2020,04,14,04,31,5.50
2020,04,14,04,32,5.40
2020,04,14,04,33,5.40
2020,04,14,04,34,5.40
2020,04,14,04,35,5.40
2020,04,14,04,36,5.40
2020,04,14,04,37,5.40
2020,04,14,04,38,5.40
2020,04,14,04,39,5.30
2020,04,14,04,40,5.30
2020,04,14,04,41,5.30
2020,04,14,04,42,5.30
2020,04,14,04,43,5.30
2020,04,14,04,44,5.30
2020,04,14,04,45,5.30
2020,04,14,04,46,5.30
2020,04,14,04,47,5.30
2020,04,14,04,48,5.30
2020,04,14,04,49,5.30
2020,04,14,04,50,5.30
2020,04,14,04,51,5.30
2020,04,14,04,52,5.30
2020,04,14,04,53,5.30
2020,04,14,04,54,5.20
2020,04,14,04,55,5.30
2020,04,14,04,56,5.30
2020,04,14,04,57,5.30
2020,04,14,04,58,5.30
2020,04,14,04,59,5.30
2020,04,14,05,00,5.30
2020,04,14,05,01,5.30
2020,04,14,05,02,5.30
2020,04,14,05,03,5.30
2020,04,14,05,04,5.30
2020,04,14,05,05,5.30
2020,04,14,05,06,5.30
2020,04,14,05,07,5.30
2020,04,14,05,08,5.30
2020,04,14,05,09,5.30
2020,04,14,05,10,5.20
2020,04,14,05,11,5.30
2020,04,14,05,12,5.20
2020,04,14,05,13,5.20
2020,04,14,05,14,5.20
2020,04,14,05,15,5.20
2020,04,14,05,16,5.30
2020,04,14,05,17,5.30
2020,04,14,05,18,5.30
2020,04,14,05,19,5.30
2020,04,14,05,20,5.30
2020,04,14,05,21,5.30
2020,04,14,05,22,5.30
2020,04,14,05,23,5.30
2020,04,14,05,24,5.30
2020,04,14,05,25,5.30
2020,04,14,05,26,5.30
2020,04,14,05,27,5.30
2020,04,14,05,28,5.40
2020,04,14,05,29,5.40
2020,04,14,05,30,5.40
2020,04,14,05,31,5.40
2020,04,14,05,32,5.40
2020,04,14,05,33,5.40
2020,04,14,05,34,5.40
2020,04,14,05,35,5.40
2020,04,14,05,36,5.40
2020,04,14,05,37,5.30
2020,04,14,05,38,5.30
2020,04,14,05,39,5.30
2020,04,14,05,40,5.40
2020,04,14,05,41,5.40
2020,04,14,05,42,5.30
2020,04,14,05,43,5.40
2020,04,14,05,44,5.40
2020,04,14,05,45,5.40
2020,04,14,05,46,5.40
2020,04,14,05,47,5.40
2020,04,14,05,48,5.40
2020,04,14,05,49,5.50
2020,04,14,05,50,5.50
2020,04,14,05,51,5.50
2020,04,14,05,52,5.50
2020,04,14,05,53,5.50
2020,04,14,05,54,5.50
2020,04,14,05,55,5.50
2020,04,14,05,56,5.50
2020,04,14,05,57,5.50
2020,04,14,05,58,5.50
2020,04,14,05,59,5.50
2020,04,14,06,00,5.40
2020,04,14,06,01,5.50
2020,04,14,06,02,5.50
2020,04,14,06,03,5.50
2020,04,14,06,04,5.50
2020,04,14,06,05,5.50
2020,04,14,06,06,5.50
2020,04,14,06,07,5.40
2020,04,14,06,08,5.40
2020,04,14,06,09,5.40
2020,04,14,06,10,5.40
2020,04,14,06,11,5.40
2020,04,14,06,12,5.40
2020,04,14,06,13,5.40
2020,04,14,06,14,5.30
2020,04,14,06,15,5.30
2020,04,14,06,16,5.30
2020,04,14,06,17,5.30
2020,04,14,06,18,5.30
2020,04,14,06,19,5.30
2020,04,14,06,20,5.20
2020,04,14,06,21,5.20
2020,04,14,06,22,5.20
2020,04,14,06,23,5.20
2020,04,14,06,24,5.10
2020,04,14,06,25,5.10
2020,04,14,06,26,5.00
2020,04,14,06,27,5.00
2020,04,14,06,28,4.90
2020,04,14,06,29,4.90
2020,04,14,06,30,4.90
2020,04,14,06,31,4.90
2020,04,14,06,32,4.90
2020,04,14,06,33,4.80
2020,04,14,06,34,4.80
2020,04,14,06,35,4.80
2020,04,14,06,36,4.80
2020,04,14,06,37,4.80
2020,04,14,06,38,4.70
2020,04,14,06,39,4.70
2020,04,14,06,40,4.70
2020,04,14,06,41,4.70
2020,04,14,06,42,4.70
2020,04,14,06,43,4.70
2020,04,14,06,44,4.70
2020,04,14,06,45,4.70
2020,04,14,06,46,4.70
2020,04,14,06,47,4.70
2020,04,14,06,48,4.70
2020,04,14,06,49,4.70
2020,04,14,06,50,4.70
2020,04,14,06,51,4.70
2020,04,14,06,52,4.70
2020,04,14,06,53,4.70
2020,04,14,06,54,4.70
2020,04,14,06,55,4.70
2020,04,14,06,56,4.70
2020,04,14,06,57,4.80
2020,04,14,06,58,4.80
2020,04,14,06,59,4.70
2020,04,14,07,00,4.70
2020,04,14,07,01,4.70
2020,04,14,07,02,4.70
2020,04,14,07,03,4.70
2020,04,14,07,04,4.70
2020,04,14,07,05,4.60
2020,04,14,07,06,4.60
2020,04,14,07,07,4.60
2020,04,14,07,08,4.60
2020,04,14,07,09,4.60
2020,04,14,07,10,4.60
2020,04,14,07,11,4.60
2020,04,14,07,12,4.70
2020,04,14,07,13,4.70
2020,04,14,07,14,4.70
2020,04,14,07,15,4.70
2020,04,14,07,16,4.70
2020,04,14,07,17,4.70
2020,04,14,07,18,4.70
2020,04,14,07,19,4.70
2020,04,14,07,20,4.70
2020,04,14,07,21,4.70
2020,04,14,07,22,4.70
2020,04,14,07,23,4.70
2020,04,14,07,24,4.70
2020,04,14,07,25,4.70
2020,04,14,07,26,4.80
2020,04,14,07,27,4.80
2020,04,14,07,28,4.80
2020,04,14,07,29,4.80
2020,04,14,07,30,4.90
2020,04,14,07,31,4.90
2020,04,14,07,32,5.00
2020,04,14,07,33,5.10
2020,04,14,07,34,5.10
2020,04,14,07,35,5.20
2020,04,14,07,36,5.20
2020,04,14,07,37,5.30
2020,04,14,07,38,5.40
2020,04,14,07,39,5.40
2020,04,14,07,40,5.40
2020,04,14,07,41,5.50
2020,04,14,07,42,5.60
2020,04,14,07,43,5.60
2020,04,14,07,44,5.70
2020,04,14,07,45,5.70
2020,04,14,07,46,5.80
2020,04,14,07,47,5.80
2020,04,14,07,48,5.90
2020,04,14,07,49,6.00
2020,04,14,07,50,6.00
2020,04,14,07,51,6.10
2020,04,14,07,52,6.10
2020,04,14,07,53,6.10
2020,04,14,07,54,6.10
2020,04,14,07,55,6.10
2020,04,14,07,56,6.10
2020,04,14,07,57,6.10
2020,04,14,07,58,6.10
2020,04,14,07,59,6.20
2020,04,14,08,00,6.20
2020,04,14,08,01,6.20
2020,04,14,08,02,6.10
2020,04,14,08,03,6.10
2020,04,14,08,04,6.10
2020,04,14,08,05,6.10
2020,04,14,08,06,6.10
2020,04,14,08,07,6.20
2020,04,14,08,08,6.20
2020,04,14,08,09,6.20
2020,04,14,08,10,6.20
2020,04,14,08,11,6.20
2020,04,14,08,12,6.20
2020,04,14,08,13,6.20
2020,04,14,08,14,6.20
2020,04,14,08,15,6.30
2020,04,14,08,16,6.30
2020,04,14,08,17,6.40
2020,04,14,08,18,6.40
2020,04,14,08,19,6.40
2020,04,14,08,20,6.50
2020,04,14,08,21,6.50
2020,04,14,08,22,6.60
2020,04,14,08,23,6.70
2020,04,14,08,24,6.70
2020,04,14,08,25,6.70
2020,04,14,08,26,6.80
2020,04,14,08,27,6.80
2020,04,14,08,28,6.80
2020,04,14,08,29,6.80
2020,04,14,08,30,6.90
2020,04,14,08,31,6.90
2020,04,14,08,32,6.90
2020,04,14,08,33,7.00
2020,04,14,08,34,7.00
2020,04,14,08,35,7.00
2020,04,14,08,36,7.00
2020,04,14,08,37,7.10
2020,04,14,08,38,7.10
2020,04,14,08,39,7.20
2020,04,14,08,40,7.20
2020,04,14,08,41,7.20
2020,04,14,08,42,7.30
2020,04,14,08,43,7.30
2020,04,14,08,44,7.30
2020,04,14,08,45,7.30
2020,04,14,08,46,7.40
2020,04,14,08,47,7.40
2020,04,14,08,48,7.40
2020,04,14,08,49,7.40
2020,04,14,08,50,7.40
2020,04,14,08,51,7.40
2020,04,14,08,52,7.50
2020,04,14,08,53,7.50
2020,04,14,08,54,7.50
2020,04,14,08,55,7.60
2020,04,14,08,56,7.60
2020,04,14,08,57,7.60
2020,04,14,08,58,7.60
2020,04,14,08,59,7.70
2020,04,14,09,00,7.70
2020,04,14,09,01,7.70
2020,04,14,09,02,7.70
2020,04,14,09,03,7.80
2020,04,14,09,04,7.80
2020,04,14,09,05,7.80
2020,04,14,09,06,7.80
2020,04,14,09,07,7.80
2020,04,14,09,08,7.90
2020,04,14,09,09,7.90
2020,04,14,09,10,7.90
2020,04,14,09,11,7.90
2020,04,14,09,12,7.90
2020,04,14,09,13,8.00
2020,04,14,09,14,8.00
2020,04,14,09,15,8.00
2020,04,14,09,16,8.00
2020,04,14,09,17,8.10
2020,04,14,09,18,8.10
2020,04,14,09,19,8.10
2020,04,14,09,20,8.10
2020,04,14,09,21,8.10
2020,04,14,09,22,8.10
2020,04,14,09,23,8.10
2020,04,14,09,24,8.20
2020,04,14,09,25,8.20
2020,04,14,09,26,8.30
2020,04,14,09,27,8.30
2020,04,14,09,28,8.30
2020,04,14,09,29,8.30
2020,04,14,09,30,8.40
2020,04,14,09,31,8.40
2020,04,14,09,32,8.40
2020,04,14,09,33,8.40
2020,04,14,09,34,8.50
2020,04,14,09,35,8.60
2020,04,14,09,36,8.70
2020,04,14,09,37,8.80
2020,04,14,09,38,8.90
2020,04,14,09,39,9.10
2020,04,14,09,40,9.10
2020,04,14,09,41,9.30
2020,04,14,09,42,9.40
2020,04,14,09,43,9.40
2020,04,14,09,44,9.50
2020,04,14,09,45,9.60
2020,04,14,09,46,9.70
2020,04,14,09,47,9.70
2020,04,14,09,48,9.90
2020,04,14,09,49,9.90
2020,04,14,09,50,10.00
2020,04,14,09,51,10.10
2020,04,14,09,52,10.10
2020,04,14,09,53,10.20
2020,04,14,09,54,10.20
2020,04,14,09,55,10.20
2020,04,14,09,56,10.20
2020,04,14,09,57,10.20
2020,04,14,09,58,10.20
2020,04,14,09,59,10.30
2020,04,14,10,00,10.30
2020,04,14,10,01,10.40
2020,04,14,10,02,10.50
2020,04,14,10,03,10.60
2020,04,14,10,04,10.70
2020,04,14,10,05,10.70
2020,04,14,10,06,10.80
2020,04,14,10,07,10.80
2020,04,14,10,08,10.80
2020,04,14,10,09,10.90
2020,04,14,10,10,10.90
2020,04,14,10,11,11.00
2020,04,14,10,12,11.00
2020,04,14,10,13,11.10
2020,04,14,10,14,11.20
2020,04,14,10,15,11.20
2020,04,14,10,16,11.30
2020,04,14,10,17,11.30
2020,04,14,10,18,11.30
2020,04,14,10,19,11.30
2020,04,14,10,20,11.30
2020,04,14,10,21,11.30
2020,04,14,10,22,11.30
2020,04,14,10,23,11.30
2020,04,14,10,24,11.40
2020,04,14,10,25,11.50
2020,04,14,10,26,11.50
2020,04,14,10,27,11.60
2020,04,14,10,28,11.70
2020,04,14,10,29,11.80
2020,04,14,10,30,11.90
2020,04,14,10,31,12.00
2020,04,14,10,32,12.10
2020,04,14,10,33,12.10
2020,04,14,10,34,12.20
2020,04,14,10,35,12.20
2020,04,14,10,36,12.20
2020,04,14,10,37,12.30
2020,04,14,10,38,12.30
2020,04,14,10,39,12.30
2020,04,14,10,40,12.30
2020,04,14,10,41,12.20
2020,04,14,10,42,12.20
2020,04,14,10,43,12.20
2020,04,14,10,44,12.30
2020,04,14,10,45,12.30
2020,04,14,10,46,12.40
2020,04,14,10,47,12.50
2020,04,14,10,48,12.60
2020,04,14,10,49,12.60
2020,04,14,10,50,12.60
2020,04,14,10,51,12.60
2020,04,14,10,52,12.60
2020,04,14,10,53,12.60
2020,04,14,10,54,12.50
2020,04,14,10,55,12.50
2020,04,14,10,56,12.50
2020,04,14,10,57,12.60
2020,04,14,10,58,12.60
2020,04,14,10,59,12.60
2020,04,14,11,00,12.60
2020,04,14,11,01,12.60
2020,04,14,11,02,12.50
2020,04,14,11,03,12.60
2020,04,14,11,04,12.60
2020,04,14,11,05,12.70
2020,04,14,11,06,12.80
2020,04,14,11,07,12.80
2020,04,14,11,08,12.70
2020,04,14,11,09,12.70
2020,04,14,11,10,12.70
2020,04,14,11,11,12.70
2020,04,14,11,12,12.70
2020,04,14,11,13,12.70
2020,04,14,11,14,12.70
2020,04,14,11,15,12.70
2020,04,14,11,16,12.70
2020,04,14,11,17,12.80
2020,04,14,11,18,12.80
2020,04,14,11,19,12.80
2020,04,14,11,20,12.80
2020,04,14,11,21,12.80
2020,04,14,11,22,12.90
2020,04,14,11,23,13.00
2020,04,14,11,24,13.00
2020,04,14,11,25,13.10
2020,04,14,11,26,13.20
2020,04,14,11,27,13.30
2020,04,14,11,28,13.40
2020,04,14,11,29,13.50
2020,04,14,11,30,13.50
2020,04,14,11,31,13.60
2020,04,14,11,32,13.60
2020,04,14,11,33,13.60
2020,04,14,11,34,13.50
2020,04,14,11,35,13.40
2020,04,14,11,36,13.40
2020,04,14,11,37,13.30
2020,04,14,11,38,13.30
2020,04,14,11,39,13.40
2020,04,14,11,40,13.40
2020,04,14,11,41,13.40
2020,04,14,11,42,13.50
2020,04,14,11,43,13.50
2020,04,14,11,44,13.50
2020,04,14,11,45,13.40
2020,04,14,11,46,13.30
2020,04,14,11,47,13.20
2020,04,14,11,48,13.20
2020,04,14,11,49,13.10
2020,04,14,11,50,13.00
2020,04,14,11,51,12.90
2020,04,14,11,52,12.90
2020,04,14,11,53,12.80
2020,04,14,11,54,12.80
2020,04,14,11,55,12.70
2020,04,14,11,56,12.70
2020,04,14,11,57,12.80
2020,04,14,11,58,12.80
2020,04,14,11,59,12.80
2020,04,14,12,00,12.90
2020,04,14,12,01,12.90
2020,04,14,12,02,12.80
2020,04,14,12,03,12.90
2020,04,14,12,04,12.90
2020,04,14,12,05,12.90
2020,04,14,12,06,13.00
2020,04,14,12,07,13.10
2020,04,14,12,08,13.10
2020,04,14,12,09,13.20
2020,04,14,12,10,13.20
2020,04,14,12,11,13.30
2020,04,14,12,12,13.30
2020,04,14,12,13,13.40
2020,04,14,12,14,13.40
2020,04,14,12,15,13.50
2020,04,14,12,16,13.60
2020,04,14,12,17,13.70
2020,04,14,12,18,13.70
2020,04,14,12,19,13.70
2020,04,14,12,20,13.70
2020,04,14,12,21,13.80
2020,04,14,12,22,13.80
2020,04,14,12,23,13.70
2020,04,14,12,24,13.70
2020,04,14,12,25,13.70
2020,04,14,12,26,13.70
2020,04,14,12,27,13.80
2020,04,14,12,28,13.90
2020,04,14,12,29,13.90
2020,04,14,12,30,14.00
2020,04,14,12,31,14.10
2020,04,14,12,32,14.30
2020,04,14,12,33,14.40
2020,04,14,12,34,14.40
2020,04,14,12,35,14.50
2020,04,14,12,36,14.60
2020,04,14,12,37,14.60
2020,04,14,12,38,14.70
2020,04,14,12,39,14.80
2020,04,14,12,40,14.80
2020,04,14,12,41,14.90
2020,04,14,12,42,14.90
2020,04,14,12,43,14.90
2020,04,14,12,44,14.90
2020,04,14,12,45,14.90
2020,04,14,12,46,14.90
2020,04,14,12,47,14.90
2020,04,14,12,48,14.90
2020,04,14,12,49,14.90
2020,04,14,12,50,14.90
2020,04,14,12,51,14.80
2020,04,14,12,52,14.70
2020,04,14,12,53,14.60
2020,04,14,12,54,14.60
2020,04,14,12,55,14.50
2020,04,14,12,56,14.40
2020,04,14,12,57,14.30
2020,04,14,12,58,14.20
2020,04,14,12,59,14.20
2020,04,14,13,00,14.10
2020,04,14,13,01,14.10
2020,04,14,13,02,14.10
2020,04,14,13,03,14.20
2020,04,14,13,04,14.20
2020,04,14,13,05,14.20
2020,04,14,13,06,14.20
2020,04,14,13,07,14.20
2020,04,14,13,08,14.20
2020,04,14,13,09,14.20
2020,04,14,13,10,14.20
2020,04,14,13,11,14.30
2020,04,14,13,12,14.40
2020,04,14,13,13,14.40
2020,04,14,13,14,14.40
2020,04,14,13,15,14.40
2020,04,14,13,16,14.40
2020,04,14,13,17,14.40
2020,04,14,13,18,14.40
2020,04,14,13,19,14.40
2020,04,14,13,20,14.40
2020,04,14,13,21,14.50
2020,04,14,13,22,14.60
2020,04,14,13,23,14.70
2020,04,14,13,24,14.80
2020,04,14,13,25,14.90
2020,04,14,13,26,14.90
2020,04,14,13,27,14.90
2020,04,14,13,28,14.90
2020,04,14,13,29,14.90
2020,04,14,13,30,14.80
2020,04,14,13,31,14.80
2020,04,14,13,32,14.80
2020,04,14,13,33,14.80
2020,04,14,13,34,14.80
2020,04,14,13,35,14.80
2020,04,14,13,36,14.90
2020,04,14,13,37,14.90
2020,04,14,13,38,15.10
2020,04,14,13,39,15.10
2020,04,14,13,40,15.10
2020,04,14,13,41,15.20
2020,04,14,13,42,15.30
2020,04,14,13,43,15.30
2020,04,14,13,44,15.20
2020,04,14,13,45,15.20
2020,04,14,13,46,15.10
2020,04,14,13,47,15.10
2020,04,14,13,48,15.10
2020,04,14,13,49,15.00
2020,04,14,13,50,15.00
2020,04,14,13,51,15.10
2020,04,14,13,52,15.10
2020,04,14,13,53,15.10
2020,04,14,13,54,15.20
2020,04,14,13,55,15.20
2020,04,14,13,56,15.20
2020,04,14,13,57,15.20
2020,04,14,13,58,15.20
2020,04,14,13,59,15.10
2020,04,14,14,00,15.10
2020,04,14,14,01,15.10
2020,04,14,14,02,15.00
2020,04,14,14,03,15.00
2020,04,14,14,04,15.00
2020,04,14,14,05,15.00
2020,04,14,14,06,15.10
2020,04,14,14,07,15.10
2020,04,14,14,08,15.10
2020,04,14,14,09,15.20
2020,04,14,14,10,15.30
2020,04,14,14,11,15.40
2020,04,14,14,12,15.60
2020,04,14,14,13,15.60
2020,04,14,14,14,15.70
2020,04,14,14,15,15.70
2020,04,14,14,16,15.60
2020,04,14,14,17,15.60
2020,04,14,14,18,15.60
2020,04,14,14,19,15.50
2020,04,14,14,20,15.40
2020,04,14,14,21,15.40
2020,04,14,14,22,15.40
2020,04,14,14,23,15.40
2020,04,14,14,24,15.40
2020,04,14,14,25,15.40
2020,04,14,14,26,15.30
2020,04,14,14,27,15.30
2020,04,14,14,28,15.30
2020,04,14,14,29,15.30
2020,04,14,14,30,15.40
2020,04,14,14,31,15.40
2020,04,14,14,32,15.40
2020,04,14,14,33,15.40
2020,04,14,14,34,15.40
2020,04,14,14,35,15.40
2020,04,14,14,36,15.40
2020,04,14,14,37,15.50
2020,04,14,14,38,15.50
2020,04,14,14,39,15.60
2020,04,14,14,40,15.60
2020,04,14,14,41,15.70
2020,04,14,14,42,15.70
2020,04,14,14,43,15.70
2020,04,14,14,44,15.80
2020,04,14,14,45,15.80
2020,04,14,14,46,15.80
2020,04,14,14,47,15.80
2020,04,14,14,48,15.80
2020,04,14,14,49,15.80
2020,04,14,14,50,15.80
2020,04,14,14,51,15.70
2020,04,14,14,52,15.70
2020,04,14,14,53,15.70
2020,04,14,14,54,15.60
2020,04,14,14,55,15.60
2020,04,14,14,56,15.60
2020,04,14,14,57,15.60
2020,04,14,14,58,15.60
2020,04,14,14,59,15.60
2020,04,14,15,00,15.60
2020,04,14,15,01,15.70
2020,04,14,15,02,15.70
2020,04,14,15,03,15.70
2020,04,14,15,04,15.70
2020,04,14,15,05,15.70
2020,04,14,15,06,15.70
2020,04,14,15,07,15.80
2020,04,14,15,08,15.70
2020,04,14,15,09,15.70
2020,04,14,15,10,15.70
2020,04,14,15,11,15.70
2020,04,14,15,12,15.70
2020,04,14,15,13,15.60
2020,04,14,15,14,15.60
2020,04,14,15,15,15.50
2020,04,14,15,16,15.50
2020,04,14,15,17,15.40
2020,04,14,15,18,15.40
2020,04,14,15,19,15.40
2020,04,14,15,20,15.40
2020,04,14,15,21,15.40
2020,04,14,15,22,15.40
2020,04,14,15,23,15.40
2020,04,14,15,24,15.40
2020,04,14,15,25,15.40
2020,04,14,15,26,15.40
2020,04,14,15,27,15.40
2020,04,14,15,28,15.40
2020,04,14,15,29,15.40
2020,04,14,15,30,15.50
2020,04,14,15,31,15.50
2020,04,14,15,32,15.50
2020,04,14,15,33,15.60
2020,04,14,15,34,15.60
2020,04,14,15,35,15.60
2020,04,14,15,36,15.70
2020,04,14,15,37,15.70
2020,04,14,15,38,15.70
2020,04,14,15,39,15.70
2020,04,14,15,40,15.80
2020,04,14,15,41,15.80
2020,04,14,15,42,15.80
2020,04,14,15,43,15.90
2020,04,14,15,44,15.90
2020,04,14,15,45,16.00
2020,04,14,15,46,16.10
2020,04,14,15,47,16.10
2020,04,14,15,48,16.10
2020,04,14,15,49,16.20
2020,04,14,15,50,16.20
2020,04,14,15,51,16.20
2020,04,14,15,52,16.20
2020,04,14,15,53,16.10
2020,04,14,15,54,16.10
2020,04,14,15,55,16.00
2020,04,14,15,56,16.00
2020,04,14,15,57,16.00
2020,04,14,15,58,15.90
2020,04,14,15,59,15.90
2020,04,14,16,00,15.80
2020,04,14,16,01,15.80
2020,04,14,16,02,15.80
2020,04,14,16,03,15.80
2020,04,14,16,04,15.80
2020,04,14,16,05,15.80
2020,04,14,16,06,15.80
2020,04,14,16,07,15.90
2020,04,14,16,08,15.90
2020,04,14,16,09,15.90
2020,04,14,16,10,15.90
2020,04,14,16,11,15.90
2020,04,14,16,12,15.90
2020,04,14,16,13,15.90
2020,04,14,16,14,15.90
2020,04,14,16,15,15.90
2020,04,14,16,16,15.90
2020,04,14,16,17,15.90
2020,04,14,16,18,15.90
2020,04,14,16,19,15.90
2020,04,14,16,20,15.90
2020,04,14,16,21,15.90
2020,04,14,16,22,15.90
2020,04,14,16,23,15.90
2020,04,14,16,24,16.00
2020,04,14,16,25,16.00
2020,04,14,16,26,16.00
2020,04,14,16,27,16.00
2020,04,14,16,28,16.10
2020,04,14,16,29,16.10
2020,04,14,16,30,16.10
2020,04,14,16,31,16.10
2020,04,14,16,32,16.20
2020,04,14,16,33,16.20
2020,04,14,16,34,16.20
2020,04,14,16,35,16.30
2020,04,14,16,36,16.30
2020,04,14,16,37,16.30
2020,04,14,16,38,16.30
2020,04,14,16,39,16.30
2020,04,14,16,40,16.20
2020,04,14,16,41,16.20
2020,04,14,16,42,16.20
2020,04,14,16,43,16.10
2020,04,14,16,44,16.10
2020,04,14,16,45,16.10
2020,04,14,16,46,16.10
2020,04,14,16,47,16.10
2020,04,14,16,48,16.00
2020,04,14,16,49,16.00
2020,04,14,16,50,16.00
2020,04,14,16,51,15.90
2020,04,14,16,52,15.90
2020,04,14,16,53,15.90
2020,04,14,16,54,15.90
2020,04,14,16,55,15.90
2020,04,14,16,56,15.90
2020,04,14,16,57,15.90
2020,04,14,16,58,15.90
2020,04,14,16,59,16.00
2020,04,14,17,00,16.00
2020,04,14,17,01,16.00
2020,04,14,17,02,16.00
2020,04,14,17,03,15.90
2020,04,14,17,04,15.90
2020,04,14,17,05,15.90
2020,04,14,17,06,15.90
2020,04,14,17,07,15.90
2020,04,14,17,08,15.90
2020,04,14,17,09,15.80
2020,04,14,17,10,15.80
2020,04,14,17,11,15.80
2020,04,14,17,12,15.80
2020,04,14,17,13,15.80
2020,04,14,17,14,15.80
2020,04,14,17,15,15.80
2020,04,14,17,16,15.80
2020,04,14,17,17,15.70
2020,04,14,17,18,15.70
2020,04,14,17,19,15.70
2020,04,14,17,20,15.60
2020,04,14,17,21,15.60
2020,04,14,17,22,15.60
2020,04,14,17,23,15.60
2020,04,14,17,24,15.60
2020,04,14,17,25,15.60
2020,04,14,17,26,15.50
2020,04,14,17,27,15.50
2020,04,14,17,28,15.50
2020,04,14,17,29,15.40
2020,04,14,17,30,15.50
2020,04,14,17,31,15.40
2020,04,14,17,32,15.40
2020,04,14,17,33,15.40
2020,04,14,17,34,15.40
2020,04,14,17,35,15.30
2020,04,14,17,36,15.30
2020,04,14,17,37,15.30
2020,04,14,17,38,15.20
2020,04,14,17,39,15.20
2020,04,14,17,40,15.20
2020,04,14,17,41,15.20
2020,04,14,17,42,15.20
2020,04,14,17,43,15.10
2020,04,14,17,44,15.10
2020,04,14,17,45,15.10